Weather Roundup
Issued by NWS Chicago, IL

Home | Current Version | Previous Version | Text Only | Print | Product List | Glossary On
Versions: 1 2 3 4 5 6 7 8 9 10 11 12 13 14 15 16 17 18 19 20 21 22 23 24 25 26 27 28 29 30 31 32 33 34 35 36 37 38 39 40 41 42 43 44 45 46 47 48 49 50
000
NZUS59 KLOT 211304
HRRLOT

CHICAGO AREA WEATHER ROUNDUP
NATIONAL WEATHER SERVICE CHICAGO/ROMEOVILLE IL
800 AM CDT THU SEP 21 2017

NOTE: "FAIR" INDICATES FEW OR NO CLOUDS BELOW 12,000 FEET WITH NO
SIGNIFICANT WEATHER AND/OR OBSTRUCTIONS TO VISIBILITY.

* THESE STATIONS ARE NOT UNDER NWS QUALITY CONTROL. THEY ALSO MAY NOT
  REPORT WEATHER SUCH AS PRECIPITATION OR FOG.

ILZ005-006-012>014-019>023-211400-
NORTHEAST ILLINOIS

CITY           SKY/WX    TMP DP  RH WIND       PRES   REMARKS
OHARE          CLOUDY    76  68  76 S6        29.99R
MIDWAY         CLOUDY    75  69  81 SW7       30.01R
AURORA         CLOUDY    72  70  93 CALM      30.01R
LANSING*       CLOUDY    74  71  92 SW3       30.02R
JOLIET*        CLOUDY    74  72  93 CALM      30.02R
WAUKEGAN       CLOUDY    74  70  87 S3        29.99R
DUPAGE AIRPORT MOSUNNY   72  70  93 S6        30.00R FOG
WHEELING       PTSUNNY   76  71  85 S5        30.00R
MORRIS*        PTSUNNY   71  69  93 NE3       30.00R FOG
LEWIS AIRPORT* PTSUNNY   71  69  93 CALM      30.02R
NORTHERLY ISL    N/A     75  67  76 S5          N/A
$$

WIZ051-052-058>065-066-070>072-211400-
SOUTHEAST WISCONSIN

CITY           SKY/WX    TMP DP  RH WIND       PRES   REMARKS
MILWAUKEE      CLOUDY    74  68  81 NE9       30.01R
KENOSHA*       CLOUDY    73  67  81 W3        30.00R
RACINE*        CLOUDY    72  68  87 W5        30.01R
WAUKESHA       MOSUNNY   66  64  94 CALM      30.01R
$$

INZ001>003-010>013-019-020-211400-
NORTHWEST INDIANA

CITY           SKY/WX    TMP DP  RH WIND       PRES   REMARKS
GARY*          PTSUNNY   75  70  83 CALM      30.02R
MICHIGAN CITY* NOT AVBL
RENSSELAER*    NOT AVBL
VALPARAISO     SUNNY     73  70  90 S6        30.03R
$$

LMZ740>746-211400-
SOUTHERN LAKE MICHIGAN

STATION/POSITION TIME  SKY/WX   TEMP WIND        PRES    VSBY
                                AIR  DIR/SP/G
                 (UTC)          (F)  (DEG/KT/KT) (MB)    (MI)
HARRISON CRIB    1240            75  190/ 10/ 10   N/A
BURNHAM HARBOR   NOT AVBL
CALUMET HARBOR   1230            73  220/  3/  6 1015.4R
BURNS HARBOR     1240            74  180/  7/ 10 1016.6R
MICHIGAN CITY    1240            74  150/  9/ 12   N/A
$$

ABBREVIATIONS USED IN REMARKS
   TC - TEMPERATURE IN CELSIUS
  WCI - WIND CHILL INDEX
   HX - HEAT INDEX
  VSB - VISIBILITY
$$




USA.gov is the U.S. government's official web portal to all federal, state and local government web resources and services.